KE0TRL Weather Reports


time (UTC)temp
C
wind
direction
speed
KPH
gust
KPH
rain 1hr
cm
rain 24hr
cm
rain mn
cm
humidity
%
barometer
mb
20260510173903 20 158 4.8 6.4 0.00 0.00 0.00 35 1019.6
20260510172802 20 180 6.4 6.4 0.00 0.00 0.00 35 1020.0
20260510171702 19 338 1.6 4.8 0.00 0.00 0.00 35 1020.3
20260510170603 18 338 4.8 8.0 0.00 0.00 0.00 35 1020.0
20260510165503 18 158 3.2 8.0 0.00 0.00 0.00 35 1020.0
20260510164402 18 45 4.8 6.4 0.00 0.00 0.00 35 1020.3
20260510163302 18 45 4.8 8.0 0.00 0.00 0.00 37 1020.3
20260510162202 18 338 3.2 6.4 0.00 0.00 0.00 35 1020.0
20260510155902 17 158 4.8 4.8 0.00 0.00 0.00 37 1020.3
20260510153701 16 45 6.4 6.4 0.00 0.00 0.00 37 1020.3
20260510152502 15 158 4.8 8.0 0.00 0.00 0.00 37 1020.3
20260510151202 15 68 3.2 6.4 0.00 0.00 0.00 40 1020.0
20260510143902 13 45 4.8 4.8 0.00 0.00 0.00 40 1020.3
20260510142902 13 45 6.4 6.4 0.00 0.00 0.00 43 1020.0
20260510141802 12 158 1.6 6.4 0.00 0.00 0.00 45 1019.6
20260510140603 12 68 0.0 3.2 0.00 0.00 0.00 46 1019.6
20260510135502 11 158 0.0 4.8 0.00 0.00 0.00 50 1020.0
20260510131102 9 45 3.2 3.2 0.00 0.00 0.00 61 1019.6
20260510124803 7 68 1.6 3.2 0.00 0.00 0.00 63 1019.3
20260510123702 6 113 0.0 0.0 0.00 0.00 0.00 63 1019.3
20260510122602 6 45 0.0 0.0 0.00 0.00 0.00 66 1019.0
20260510121503 6 158 0.0 0.0 0.00 0.00 0.00 69 1019.0
20260510120402 5 68 0.0 0.0 0.00 0.00 0.00 68 1019.3
20260510114003 5 158 0.0 0.0 0.00 0.00 0.00 68 1018.6
20260510112902 5 158 0.0 0.0 0.00 0.00 0.00 69 1019.0
20260510111803 5 158 0.0 0.0 0.00 0.00 0.00 66 1018.6
20260510110502 5 90 0.0 0.0 0.00 0.00 0.00 65 1018.6
20260510105402 5 158 0.0 0.0 0.00 0.00 0.00 63 1019.0
20260510103102 5 113 3.2 3.2 0.00 0.00 0.00 65 1018.6
20260510102003 5 45 0.0 0.0 0.00 0.00 0.00 63 1018.3
20260510101002 5 135 0.0 0.0 0.00 0.00 0.00 63 1017.9
20260510095902 5 90 0.0 0.0 0.00 0.00 0.00 63 1017.9
20260510094802 5 180 0.0 0.0 0.00 0.00 0.00 63 1017.9
20260510093702 5 180 0.0 0.0 0.00 0.00 0.00 63 1017.9
20260510092602 5 180 0.0 0.0 0.00 0.00 0.00 63 1017.6
20260510091503 5 203 0.0 0.0 0.00 0.00 0.00 61 1017.6
20260510090202 5 203 0.0 0.0 0.00 0.00 0.00 63 1017.3
20260510085102 6 180 0.0 0.0 0.00 0.00 0.00 61 1017.3
20260510082003 6 180 0.0 0.0 0.00 0.00 0.00 56 1016.9
20260510075802 6 180 0.0 0.0 0.00 0.00 0.00 56 1016.9
20260510073602 7 203 0.0 0.0 0.00 0.00 0.00 55 1016.6
20260510072502 7 180 0.0 0.0 0.00 0.00 0.00 55 1016.6
20260510071302 7 180 0.0 0.0 0.00 0.00 0.00 54 1016.3
20260510070202 8 203 0.0 1.6 0.00 0.00 0.00 53 1016.6
20260510065102 8 180 0.0 0.0 0.00 0.00 0.00 51 1016.9
20260510064002 8 180 0.0 0.0 0.00 0.00 0.00 51 1016.6
20260510062803 9 180 0.0 1.6 0.00 0.00 0.00 50 1016.6
20260510061702 10 180 0.0 3.2 0.00 0.00 0.00 50 1016.6
20260510055502 10 203 0.0 3.2 0.00 0.00 0.00 48 1015.9
20260510054402 10 203 0.0 1.6 0.00 0.00 0.00 49 1015.6
20260510053302 10 203 3.2 3.2 0.00 0.00 0.00 49 1015.2
20260510052201 10 180 3.2 3.2 0.00 0.00 0.00 48 1014.9
20260510051102 11 203 3.2 3.2 0.00 0.00 0.00 48 1014.9
20260510050003 11 180 0.0 1.6 0.00 0.00 0.00 48 1014.9
20260510045306 11 180 0.0 1.6 0.00 0.00 0.03 48 1014.6
20260510041802 12 158 3.2 3.2 0.00 0.00 0.03 45 1014.2
20260510035602 12 203 3.2 4.8 0.00 0.00 0.03 44 1013.9
20260510034601 13 180 3.2 4.8 0.00 0.00 0.03 44 1013.5
20260510033003 13 158 3.2 6.4 0.00 0.00 0.03 44 1013.5
20260510031902 13 135 4.8 4.8 0.00 0.00 0.03 44 1013.2
20260510030702 13 158 4.8 4.8 0.00 0.00 0.03 44 1013.2
20260510025602 14 225 1.6 3.2 0.00 0.00 0.03 43 1012.9
20260510024503 14 180 3.2 3.2 0.00 0.00 0.03 43 1012.9
20260510023402 15 203 0.0 1.6 0.00 0.00 0.03 41 1012.2
20260510022306 15 180 3.2 3.2 0.00 0.00 0.03 40 1012.2
20260510021202 15 203 1.6 1.6 0.00 0.00 0.03 40 1011.9
20260510015002 16 180 4.8 4.8 0.00 0.00 0.03 37 1011.5
20260510013902 17 180 6.4 6.4 0.00 0.00 0.03 39 1011.2
20260510012802 17 180 6.4 6.4 0.00 0.00 0.03 37 1010.8
20260510011703 17 180 1.6 8.0 0.00 0.00 0.03 37 1010.5
20260510010602 18 180 1.6 4.8 0.00 0.00 0.03 37 1010.5
20260510005503 18 180 3.2 8.0 0.00 0.00 0.03 39 1010.2
20260510004402 19 180 3.2 4.8 0.00 0.00 0.03 39 1010.2
20260510003302 19 135 4.8 4.8 0.00 0.00 0.03 41 1010.2
20260510002202 19 203 4.8 6.4 0.00 0.00 0.03 41 1009.8
20260510001102 19 180 4.8 4.8 0.00 0.00 0.03 40 1010.2
20260510000004 20 158 8.0 9.7 0.00 0.00 0.03 40 1010.2
20260509234902 20 158 3.2 8.0 0.00 0.00 0.03 41 1009.8
20260509233802 20 203 4.8 6.4 0.00 0.00 0.03 44 1009.8
20260509232702 20 203 1.6 6.4 0.00 0.00 0.03 44 1009.8
20260509231504 20 203 3.2 3.2 0.00 0.00 0.03 45 1009.5
20260509230402 20 135 6.4 6.4 0.00 0.00 0.03 45 1009.8
20260509225305 20 158 3.2 6.4 0.00 0.00 0.03 45 1009.8
20260509224003 20 158 3.2 11.3 0.00 0.00 0.03 45 1009.8
20260509222902 20 180 6.4 6.4 0.00 0.00 0.03 45 1009.5
20260509221802 20 113 4.8 6.4 0.00 0.00 0.03 45 1009.5
20260509220702 20 180 4.8 6.4 0.00 0.00 0.03 45 1009.5
20260509215602 20 293 6.4 6.4 0.00 0.00 0.03 45 1009.5
20260509214502 20 315 9.7 9.7 0.00 0.00 0.03 45 1009.1
20260509212202 20 293 9.7 9.7 0.00 0.00 0.03 45 1009.1
20260509211102 20 180 6.4 14.5 0.00 0.00 0.03 44 1008.8
20260509210003 21 203 6.4 11.3 0.00 0.00 0.03 41 1008.8
20260509204902 21 248 17.7 19.3 0.00 0.00 0.03 40 1008.8
20260509203802 21 225 9.7 12.9 0.00 0.00 0.03 40 1008.8
20260509202701 22 180 6.4 8.0 0.00 0.00 0.03 37 1008.8
20260509201502 23 225 8.0 14.5 0.00 0.00 0.03 37 1008.5
20260509195302 24 225 4.8 9.7 0.00 0.00 0.03 37 1008.1
20260509194102 24 225 11.3 11.3 0.00 0.00 0.03 35 1007.8
20260509193003 23 180 3.2 6.4 0.00 0.00 0.03 35 1007.5
20260509191902 24 180 6.4 6.4 0.00 0.00 0.03 30 1007.5
20260509185602 25 203 4.8 8.0 0.00 0.00 0.03 27 1007.5
20260509184502 25 113 3.2 8.0 0.00 0.00 0.03 30 1007.1
20260509183402 23 180 6.4 6.4 0.00 0.00 0.03 30 1007.5
20260509182306 24 203 4.8 8.0 0.00 0.00 0.03 31 1007.5
20260509181102 25 225 3.2 4.8 0.00 0.00 0.03 30 1007.1